Regional Weather Roundup
Issued by NWS

Home | Current Version | Previous Version | Graphics & Text | Print | Product List | Glossary On
Versions: 1 2 3 4 5 6 7 8 9 10 11 12 13 14 15 16 17 18 19 20 21 22 23 24 25 26 27 28 29 30 31 32 33 34 35 36 37 38 39 40 41 42 43 44 45 46 47 48 49 50
000
ASUS43 KLMK 170310
RWRKY
KENTUCKY REGIONAL WEATHER ROUNDUP
NATIONAL WEATHER SERVICE LOUISVILLE KY
1000 PM EST FRI FEB 16 2018

NOTE "FAIR" INDICATES FEW OR NO CLOUDS BELOW 12,000 FEET
WITH NO SIGNIFICANT WEATHER AND/OR OBSTRUCTIONS TO VISIBILITY.

KYZ001>023-026-027-061>063-070>075-170400-
WESTERN AND SOUTH CENTRAL KENTUCKY

CITY           SKY/WX    TMP DP  RH WIND       PRES   REMARKS
PADUCAH        CLOUDY    39  30  70 NE9       30.31S WCI  33
HENDERSON      CLOUDY    38  30  73 N5        30.32F WCI  34
OWENSBORO      CLOUDY    39  31  72 N3        30.32S
HOPKINSVILLE   CLOUDY    40  33  74 NE7       30.29S
BOWLING GREEN  CLOUDY    42  35  76 N5        30.29S
GLASGOW        CLOUDY    40  35  83 N7        30.28S
$$

KYZ024-025-028>034-038-045-046-053-170400-
NORTH CENTRAL KENTUCKY

CITY           SKY/WX    TMP DP  RH WIND       PRES   REMARKS
LOUISVILLE/SDF MOCLDY    39  29  67 NE5       30.30F
LOUISVILLE/LOU FAIR      36  30  79 CALM      30.30F
FORT KNOX      CLOUDY    37  29  72 NE3       30.29F
$$

KYZ035>037-039>044-047>052-055>060-089>105-170400-
NORTHEAST KENTUCKY

CITY           SKY/WX    TMP DP  RH WIND       PRES   REMARKS
LEXINGTON      CLOUDY    38  31  76 NW5       30.28R WCI  34
COVINGTON      CLOUDY    36  28  73 N6        30.28S WCI  31
FRANKFORT      CLOUDY    38  28  67 N5        30.28R WCI  34
$$

KYZ054-064>069-076>088-106>120-170400-
SOUTHEAST KENTUCKY

CITY           SKY/WX    TMP DP  RH WIND       PRES   REMARKS
JACKSON        CLOUDY    39  36  89 VRB3      30.24R
LONDON         CLOUDY    41  36  82 N9        30.25R
SOMERSET       CLOUDY    39  34  81 N6        30.28S WCI  35
MIDDLESBORO    CLOUDY    44  39  85 N3        30.24S
MONTICELLO     NOT AVBL
$$





USA.gov is the U.S. government's official web portal to all federal, state and local government web resources and services.